Find Qianfan Jigui 01-05

NORAD ID: 60383 Int'l Des: 2024-140 Owner: YUANX Country: CN Constellation: qianfan operational
LEOCIRCULARPOLAR

实时位置

正在加载3D地球...

关于 Qianfan Jigui 01-05

正在加载描述...

即将过境

Passes for default location (London). Set your location on the main map for personalized predictions.

高度历史

Loading altitude history...

两行轨道根数

1 60383U 24140E 26105.21836009 .00000044 00000-0 49974-4 0 9999
2 60383 88.9656 286.4506 0014309 208.1001 151.9380 13.51005204 83979
Epoch: Apr 15, 2026 • Age: 8 hours

当前状态

高度 1069.2 km
速度 7.32 km/s
星下点 37.49°N, 66.09°E
发射日期 Aug 6, 2024
运行时间 1.6 years
类型 internet

技术详情

分类 Payload
质量 267.00 kg
干质量 267.00 kg
总质量 267.00 kg
长度 0.30 m
直径 3.00 m
跨度 10.00 m
形状 Box+pan
制造商 SECM
平台类型 Qianfan
阶段状态 In Orbit
所有者/国家 YUANX/CN

Most Searched